QPF
0.00 0.00 0.00 0.00 0.00 0.00 0.00 0.00 0.00 0.00 0.00 0.00 0.00 0.00 0.00 0.00 0.00 0.00 0.00 0.00 0.00 0.00 0.00 0.00 0.00 0.00 0.00 0.00 0.00 0.00 0.00 0.00 0.00 0.00 0.00 0.00 0.00 0.00 0.00 0.00 0.00 0.00 0.00 0.00 0.00
0.00 0.00 0.00 0.00 0.00 0.00 0.00 0.00 0.00 0.00 0.00 0.00 0.00 0.00 0.00 0.00 0.00 0.00 0.00 0.00 0.00 0.00 0.00 0.00 0.00 0.00 0.00 0.00 0.00 0.00 0.00 0.00 0.00 0.00 0.00 0.00 0.00 0.00 0.00 0.00 0.00 0.00 0.00 0.00 0.00
0.00 0.00 0.00 0.00 0.00 0.00 0.00 0.00 0.00 0.00 0.00 0.00 0.00 0.00 0.00 0.00 0.00 0.00 0.00 0.00 0.00 0.00 0.00 0.00 0.00 0.00 0.00 0.00 0.00 0.00 0.00 0.00 0.00 0.00 0.00 0.00 0.00 0.00 0.00 0.00 0.00 0.00 0.00 0.00 0.00
0.00 0.00 0.00 0.00 0.00 0.00 0.00 0.00 0.00 0.00 0.00 0.00 0.00 0.00 0.00 0.00 0.00 0.00 0.00 0.00 0.00 0.00 0.00 0.00 0.00 0.00 0.00 0.00 0.00 0.00 0.00 0.00 0.00 0.00 0.00 0.00 0.00 0.00 0.00 0.00 0.00 0.00 0.00 0.00 0.00
0.00 0.00 0.00 0.00 0.00 0.00 0.00 0.00 0.00 0.00 0.00 0.00 0.00 0.00 0.00 0.00 0.00 0.00 0.00 0.00 0.00 0.00 0.00 0.00 0.00 0.00 0.00 0.00 0.00 0.00 0.00 0.00 0.00 0.00 0.00 0.00 0.00 0.00 0.00 0.00 0.00 0.00 0.00 0.00 0.00
0.00 0.00 0.00 0.00 0.00 0.00 0.00 0.00 0.00 0.00 0.00 0.00 0.00 0.00 0.00 0.00 0.00 0.00 0.00 0.00 0.00 0.00 0.00 0.00 0.00 0.00 0.00 0.00 0.00 0.00 0.00 0.00 0.00 0.00 0.00 0.00 0.00 0.00 0.00 0.00 0.00 0.00 0.00 0.00 0.00
0.00 0.00 0.00 0.00 0.00 0.00 0.00 0.00 0.00 0.00 0.00 0.00 0.00 0.00 0.00 0.00 0.00 0.00 0.00 0.00 0.00 0.00 0.00 0.00 0.00 0.00 0.00 0.00 0.00 0.00 0.00 0.00 0.00 0.00 0.00 0.00 0.00 0.00 0.00 0.00 0.00 0.00 0.00 0.00 0.00
0.00 0.00 0.00 0.00 0.00 0.00 0.00 0.00 0.00 0.00 0.00 0.00 0.00 0.00 0.00 0.00 0.00 0.00 0.00 0.00 0.00 0.00 0.00 0.00 0.00 0.00 0.00 0.00 0.00 0.00 0.00 0.00 0.00 0.00 0.00 0.00 0.00 0.00 0.00 0.00 0.00 0.00 0.00 0.00 0.00
0.00 0.00 0.00 0.00 0.00 0.00 0.00 0.00 0.00 0.00 0.00 0.00 0.00 0.00 0.00 0.00 0.00 0.00 0.00 0.00 0.00 0.00 0.00 0.00 0.00 0.00 0.00 0.00 0.00 0.00 0.00 0.00 0.00 0.00 0.00 0.00 0.00 0.00 0.00 0.00 0.00 0.00 0.00 0.00 0.00
0.00 0.00 0.00 0.00 0.00 0.00 0.00 0.00 0.00 0.00 0.00 0.00 0.00 0.00 0.00 0.00 0.00 0.00 0.00 0.00 0.00 0.00 0.00 0.00 0.00 0.00 0.00 0.00 0.00 0.00 0.00 0.00 0.00 0.00 0.00 0.00 0.00 0.00 0.00 0.00 0.00 0.00 0.00 0.00 0.00
0.00 0.00 0.00 0.00 0.00 0.00 0.00 0.00 0.00 0.00 0.00 0.00 0.00 0.00 0.00 0.00 0.00 0.00 0.00 0.00 0.00 0.00 0.00 0.00 0.00 0.00 0.00 0.00 0.00 0.00 0.00 0.00 0.00 0.00 0.00 0.00 0.00 0.00 0.00 0.00 0.00 0.00 0.00 0.00 0.00
0.00 0.00 0.00 0.00 0.00 0.00 0.00 0.00 0.00 0.00 0.00 0.00 0.00 0.00 0.00 0.00 0.00 0.00 0.00 0.00 0.00 0.00 0.00 0.00 0.00 0.00 0.00 0.00 0.00 0.00 0.00 0.00 0.00 0.00 0.00 0.00 0.00 0.00 0.00 0.00 0.00 0.00 0.00 0.00 0.00
0.00 0.00 0.00 0.00 0.00 0.00 0.00 0.00 0.00 0.00 0.00 0.00 0.00 0.00 0.00 0.00 0.00 0.00 0.00 0.00 0.00 0.00 0.00 0.00 0.00 0.00 0.00 0.00 0.00 0.00 0.00 0.00 0.00 0.00 0.00 0.00 0.00 0.00 0.00 0.00 0.00 0.00 0.00 0.00 0.00
0.00 0.00 0.00 0.00 0.00 0.00 0.00 0.00 0.00 0.00 0.00 0.00 0.00 0.00 0.00 0.00 0.00 0.00 0.00 0.00 0.00 0.00 0.00 0.00 0.00 0.00 0.00 0.00 0.00 0.00 0.00 0.00 0.00 0.00 0.00 0.00 0.00 0.00 0.00 0.00 0.00 0.00 0.00 0.00 0.00
0.00 0.00 0.00 0.00 0.00 0.00 0.00 0.00 0.00 0.00 0.00 0.00 0.00 0.00 0.00 0.00 0.00 0.00 0.00 0.00 0.00 0.00 0.00 0.00 0.00 0.00 0.00 0.00 0.00 0.00 0.00 0.00 0.00 0.00 0.00 0.00 0.00 0.00 0.00 0.00 0.00 0.00 0.00 0.00 0.00
0.00 0.00 0.00 0.00 0.00 0.00 0.00 0.00 0.00 0.00 0.00 0.00 0.00 0.00 0.00 0.00 0.00 0.00 0.00 0.00 0.00 0.00 0.00 0.00 0.00 0.00 0.00 0.00 0.00 0.00 0.00 0.00 0.00 0.00 0.00 0.00 0.00 0.00 0.00 0.00 0.00 0.00 0.00 0.00 0.00
0.00 0.00 0.00 0.00 0.00 0.00 0.00 0.00 0.00 0.00 0.00 0.00 0.00 0.00 0.00 0.00 0.00 0.00 0.00 0.00 0.00 0.00 0.00 0.00 0.00 0.00 0.00 0.00 0.00 0.00 0.00 0.00 0.00 0.00 0.00 0.00 0.00 0.00 0.00 0.00 0.00 0.00 0.00 0.00 0.00
0.00 0.00 0.00 0.00 0.00 0.00 0.00 0.00 0.00 0.00 0.00 0.00 0.00 0.00 0.00 0.00 0.00 0.00 0.00 0.00 0.00 0.00 0.00 0.00 0.00 0.00 0.00 0.00 0.00 0.00 0.00 0.00 0.00 0.00 0.00 0.00 0.00 0.00 0.00 0.00 0.00 0.00 0.00 0.00 0.00
0.00 0.00 0.00 0.00 0.00 0.00 0.00 0.00 0.00 0.00 0.00 0.00 0.00 0.00 0.00 0.00 0.00 0.00 0.00 0.00 0.00 0.00 0.00 0.00 0.00 0.00 0.00 0.00 0.00 0.00 0.00 0.00 0.00 0.00 0.00 0.00 0.00 0.00 0.00 0.00 0.00 0.00 0.00 0.00 0.00
0.00 0.00 0.00 0.00 0.00 0.00 0.00 0.00 0.00 0.00 0.00 0.00 0.00 0.00 0.00 0.00 0.00 0.00 0.00 0.00 0.00 0.00 0.00 0.00 0.00 0.00 0.00 0.00 0.00 0.00 0.00 0.00 0.00 0.00 0.00 0.00 0.00 0.00 0.00 0.00 0.00 0.00 0.00 0.00 0.00
0.00 0.00 0.00 0.00 0.00 0.00 0.00 0.00 0.00 0.00 0.00 0.00 0.00 0.00 0.00 0.00 0.00 0.00 0.00 0.00 0.00 0.00 0.00 0.00 0.00 0.00 0.00 0.00 0.00 0.00 0.00 0.00 0.00 0.00 0.00 0.00 0.00 0.00 0.00 0.00 0.00 0.00 0.00 0.00 0.00
0.00 0.00 0.00 0.00 0.00 0.00 0.00 0.00 0.00 0.00 0.00 0.00 0.00 0.00 0.00 0.00 0.00 0.00 0.00 0.00 0.00 0.00 0.00 0.00 0.00 0.00 0.00 0.00 0.00 0.00 0.00 0.00 0.00 0.00 0.00 0.00 0.00 0.00 0.00 0.00 0.00 0.00 0.00 0.00 0.00
0.00 0.00 0.00 0.00 0.00 0.00 0.00 0.00 0.00 0.00 0.00 0.00 0.00 0.00 0.00 0.00 0.00 0.00 0.00 0.00 0.00 0.00 0.00 0.00 0.00 0.00 0.00 0.00 0.00 0.00 0.00 0.00 0.00 0.00 0.00 0.02 0.01 0.00 0.00 0.00 0.00 0.00 0.00 0.00 0.00
0.00 0.00 0.00 0.00 0.00 0.00 0.00 0.00 0.00 0.00 0.00 0.00 0.00 0.00 0.00 0.00 0.00 0.00 0.00 0.00 0.00 0.00 0.00 0.00 0.00 0.00 0.00 0.00 0.00 0.00 0.00 0.00 0.00 0.00 0.00 0.00 0.00 0.00 0.00 0.00 0.00 0.00 0.00 0.00 0.00
0.00 0.00 0.00 0.00 0.00 0.00 0.00 0.00 0.00 0.00 0.00 0.00 0.00 0.00 0.00 0.00 0.00 0.00 0.00 0.00 0.00 0.00 0.00 0.00 0.00 0.00 0.00 0.00 0.00 0.00 0.00 0.00 0.00 0.00 0.00 0.00 0.00 0.00 0.00 0.00 0.00 0.00 0.00 0.00 0.00
0.00 0.00 0.00 0.00 0.00 0.00 0.00 0.00 0.00 0.00 0.00 0.00 0.00 0.00 0.00 0.00 0.00 0.00 0.00 0.00 0.00 0.00 0.00 0.00 0.00 0.00 0.00 0.00 0.00 0.00 0.00 0.00 0.00 0.00 0.00 0.00 0.00 0.00 0.00 0.00 0.00 0.00 0.00 0.00 0.00
0.00 0.00 0.00 0.00 0.00 0.00 0.00 0.00 0.00 0.00 0.00 0.00 0.00 0.00 0.00 0.00 0.00 0.00 0.00 0.00 0.00 0.00 0.00 0.00 0.00 0.00 0.00 0.00 0.00 0.00 0.00 0.00 0.00 0.00 0.00 0.00 0.00 0.00 0.00 0.00 0.00 0.00 0.00 0.00 0.00
MSLP
1018.65 1018.13 1017.61 1017.10 1016.69 1016.23 1015.80 1015.41 1015.12 1014.84 1014.64 1014.62 1014.52 1014.30 1014.10 1013.82 1013.28 1012.66 1010.33 1009.59 1009.12 1009.64 1009.98 1008.45 1008.10 1007.42 1006.90 1005.62 1005.24 1004.62 1002.77 1000.18 999.46 999.83 1000.27 1002.25 1002.87 1003.55 1004.40 1004.94 1005.78 1006.71 1006.81 1008.72 1009.94
1018.81 1018.21 1017.70 1017.20 1016.72 1016.26 1015.85 1015.45 1015.07 1014.76 1014.53 1014.38 1014.31 1014.14 1013.96 1013.77 1012.40 1010.12 1009.31 1009.21 1009.59 1009.85 1009.24 1007.73 1006.87 1006.47 1005.69 1004.63 1004.24 1003.61 1001.82 999.84 999.94 1000.07 1000.40 1002.26 1002.75 1004.10 1004.58 1005.47 1006.52 1007.68 1008.75 1009.47 1009.72
1019.00 1018.40 1017.80 1017.32 1016.88 1016.36 1015.85 1015.37 1014.93 1014.62 1014.35 1014.13 1013.97 1013.86 1013.77 1013.49 1011.11 1007.86 1008.84 1009.38 1009.75 1009.84 1008.55 1007.28 1006.28 1005.76 1004.58 1003.88 1003.45 1003.00 1001.43 1000.34 1001.06 1001.06 1000.97 1002.36 1002.65 1003.79 1004.13 1004.90 1005.72 1007.40 1008.66 1009.28 1009.42
1019.15 1018.58 1018.04 1017.51 1016.86 1016.28 1015.78 1015.26 1014.74 1014.34 1014.07 1013.88 1013.73 1013.61 1013.56 1012.54 1008.64 1008.13 1009.05 1009.50 1009.79 1009.38 1007.84 1006.74 1006.08 1005.20 1003.92 1003.47 1003.06 1002.51 1002.24 1001.84 1002.03 1002.12 1001.84 1002.56 1003.25 1004.19 1004.08 1004.45 1005.42 1007.11 1008.57 1009.06 1009.19
1019.29 1018.72 1018.08 1017.41 1016.78 1016.15 1015.56 1015.01 1014.54 1014.04 1013.74 1013.55 1013.44 1013.45 1013.28 1010.55 1007.64 1008.56 1009.35 1009.61 1009.29 1008.58 1006.96 1005.95 1005.26 1004.36 1003.46 1002.90 1003.36 1002.73 1002.90 1002.68 1002.70 1002.93 1002.56 1003.26 1003.94 1004.07 1004.74 1005.75 1006.34 1007.62 1008.55 1008.88 1008.92
1019.37 1018.73 1018.04 1017.32 1016.64 1015.96 1015.32 1014.71 1014.18 1013.72 1013.42 1013.28 1013.21 1013.36 1011.99 1008.56 1007.10 1008.07 1008.41 1008.74 1008.02 1007.36 1006.41 1005.70 1004.76 1004.32 1003.48 1003.36 1003.24 1002.68 1003.22 1003.04 1003.19 1003.12 1003.46 1003.81 1004.18 1004.68 1005.22 1006.45 1006.97 1008.03 1008.44 1008.75 1009.06
1019.41 1018.68 1017.98 1017.23 1016.46 1015.72 1015.06 1014.38 1013.82 1013.33 1013.16 1013.02 1012.93 1012.55 1010.00 1007.34 1006.89 1007.56 1007.82 1007.58 1007.20 1006.82 1006.26 1006.06 1005.61 1005.19 1003.98 1003.63 1003.45 1003.55 1003.53 1003.53 1003.62 1003.52 1003.93 1004.51 1004.33 1005.13 1005.26 1006.67 1007.29 1008.00 1008.48 1008.75 1009.30
1019.46 1018.73 1017.99 1017.16 1016.28 1015.45 1014.77 1014.10 1013.44 1012.97 1012.92 1012.88 1012.87 1011.42 1008.08 1006.87 1006.84 1007.10 1007.33 1007.17 1007.30 1007.12 1006.75 1006.52 1006.28 1005.32 1004.41 1003.97 1004.14 1003.72 1003.40 1003.24 1003.58 1003.90 1004.30 1004.94 1003.74 1004.64 1005.52 1006.62 1007.10 1007.76 1008.36 1008.85 1009.30
1019.42 1018.65 1017.91 1017.10 1016.16 1015.28 1014.45 1013.86 1013.21 1012.79 1012.61 1012.54 1012.18 1010.10 1006.93 1007.74 1007.08 1006.79 1006.92 1006.66 1006.90 1007.08 1006.97 1007.19 1006.48 1005.40 1004.88 1004.20 1003.60 1003.42 1002.53 1002.62 1002.68 1003.87 1004.22 1004.91 1003.86 1003.69 1005.19 1006.30 1006.67 1007.38 1007.92 1008.64 1009.12
1019.30 1018.48 1017.67 1016.88 1015.91 1015.07 1014.01 1013.59 1012.93 1012.84 1012.31 1011.20 1010.13 1008.90 1006.52 1005.96 1006.13 1006.17 1006.53 1006.49 1006.57 1006.62 1006.67 1006.73 1005.90 1005.12 1004.45 1003.63 1002.15 1002.06 1002.31 1001.72 1002.09 1003.50 1004.24 1004.24 1004.08 1003.56 1004.71 1005.72 1006.22 1006.71 1007.27 1007.83 1008.60
1019.27 1018.43 1017.40 1016.64 1015.55 1014.80 1013.39 1012.18 1012.24 1011.35 1009.78 1007.72 1006.76 1006.06 1005.38 1005.55 1005.95 1006.02 1006.14 1006.53 1006.32 1006.29 1005.79 1005.54 1004.95 1003.83 1003.25 1003.17 1002.38 1001.70 1001.64 1001.70 1001.88 1002.36 1003.64 1003.70 1003.79 1003.66 1004.06 1005.20 1005.62 1005.94 1006.52 1007.04 1007.68
1019.32 1018.39 1017.30 1016.23 1015.15 1014.18 1013.95 1010.54 1010.89 1010.84 1008.73 1006.64 1006.20 1005.68 1005.75 1005.86 1005.83 1005.67 1005.89 1006.06 1005.93 1005.37 1005.16 1004.88 1004.16 1003.11 1002.99 1002.94 1003.05 1002.74 1002.35 1002.00 1002.02 1002.87 1003.97 1003.50 1003.42 1003.14 1003.32 1004.22 1004.94 1005.25 1005.66 1006.30 1007.00
1019.45 1018.43 1017.34 1015.86 1014.84 1013.36 1011.60 1011.16 1010.91 1010.44 1008.61 1005.26 1004.90 1004.85 1005.08 1005.84 1005.15 1005.14 1005.60 1005.40 1005.08 1004.90 1004.18 1003.96 1002.90 1003.12 1003.77 1003.71 1003.64 1003.18 1002.69 1002.46 1002.54 1003.42 1004.27 1003.84 1002.91 1002.53 1002.63 1003.24 1004.28 1004.65 1005.08 1005.50 1006.18
1019.44 1018.42 1017.58 1016.10 1014.74 1012.38 1010.93 1011.40 1010.80 1010.62 1007.86 1004.59 1004.48 1003.99 1004.29 1004.96 1004.84 1004.42 1005.08 1004.87 1004.63 1004.28 1003.92 1003.62 1003.19 1003.97 1004.02 1003.72 1003.80 1002.98 1003.12 1003.24 1003.25 1003.53 1003.33 1003.30 1002.27 1001.70 1002.06 1002.59 1003.49 1004.08 1004.50 1005.01 1005.64
1019.58 1018.52 1017.53 1017.75 1015.22 1011.77 1011.79 1011.37 1011.00 1010.56 1006.42 1004.28 1003.76 1003.83 1003.58 1004.06 1003.34 1004.23 1004.59 1004.70 1004.38 1004.14 1004.10 1003.28 1003.26 1003.92 1003.71 1003.62 1003.69 1003.38 1003.90 1004.38 1004.48 1004.27 1003.85 1003.06 1002.80 1001.63 1000.75 1001.82 1002.81 1003.64 1004.05 1004.56 1005.14
1019.05 1018.38 1017.77 1014.68 1014.00 1012.23 1011.77 1011.44 1010.98 1009.08 1004.87 1003.80 1003.45 1003.51 1003.36 1003.62 1003.56 1003.37 1004.51 1004.83 1004.66 1004.08 1003.94 1003.59 1003.69 1003.70 1003.66 1003.63 1003.90 1004.21 1005.10 1005.12 1005.30 1004.94 1003.95 1003.31 1002.92 1001.35 1000.80 1001.37 1002.41 1003.10 1003.66 1004.34 1004.92
1018.49 1017.53 1017.56 1015.23 1011.96 1011.97 1011.84 1010.86 1009.11 1006.39 1004.22 1003.35 1003.09 1002.84 1002.81 1003.02 1003.28 1004.04 1004.28 1004.40 1004.07 1004.14 1003.60 1003.62 1003.43 1003.94 1004.15 1004.05 1004.57 1004.91 1005.00 1004.79 1004.67 1004.02 1003.10 1002.67 1002.85 1001.89 1002.18 1003.04 1003.30 1003.54 1004.20 1004.86 1005.49
1017.94 1016.55 1014.74 1013.65 1012.74 1012.44 1011.71 1010.06 1007.33 1004.64 1003.84 1004.14 1003.58 1002.91 1002.34 1002.43 1003.00 1003.30 1003.54 1003.54 1004.00 1003.68 1002.76 1002.30 1002.34 1003.00 1003.82 1003.88 1003.71 1004.49 1004.62 1004.50 1004.42 1003.20 1002.40 1003.42 1002.92 1002.53 1003.36 1004.00 1004.32 1004.58 1004.79 1005.38 1005.86
1017.40 1014.07 1012.58 1011.89 1012.52 1012.33 1011.06 1008.40 1006.03 1004.87 1004.36 1004.38 1003.95 1003.03 1002.34 1002.10 1002.44 1002.65 1002.94 1002.78 1002.80 1003.50 1003.34 1002.38 1002.32 1002.22 1003.07 1003.72 1003.72 1003.58 1004.22 1004.62 1004.69 1004.74 1004.16 1003.04 1002.20 1003.08 1003.62 1004.33 1004.70 1004.82 1005.15 1005.81 1006.42
1017.48 1014.26 1011.61 1011.72 1012.40 1011.84 1010.12 1007.16 1005.50 1005.38 1005.67 1005.37 1004.04 1003.06 1002.12 1002.22 1002.86 1002.22 1002.38 1002.74 1002.69 1002.79 1003.68 1003.13 1003.07 1002.77 1003.28 1004.06 1003.92 1003.93 1004.04 1004.77 1005.49 1005.61 1004.76 1003.40 1002.15 1002.16 1003.17 1003.94 1004.60 1004.92 1005.41 1005.97 1006.78
1017.11 1012.86 1011.40 1011.60 1011.87 1010.71 1008.29 1006.39 1005.61 1005.76 1006.15 1005.69 1004.60 1003.68 1003.34 1002.64 1002.69 1002.38 1002.50 1002.63 1003.42 1003.26 1003.72 1003.78 1003.94 1003.05 1003.76 1003.85 1003.38 1003.85 1004.27 1004.68 1004.76 1004.87 1005.18 1004.30 1003.04 1003.27 1003.49 1003.92 1004.41 1004.72 1005.00 1005.68 1006.56
1015.59 1011.94 1011.14 1011.31 1010.52 1008.57 1006.98 1005.92 1006.02 1005.47 1006.46 1005.98 1005.72 1004.72 1004.23 1004.08 1004.09 1003.36 1003.02 1003.54 1004.62 1004.61 1003.70 1004.05 1004.24 1003.85 1003.23 1003.15 1003.10 1002.90 1003.14 1004.06 1004.50 1005.02 1005.04 1005.07 1004.33 1003.88 1004.22 1004.31 1004.84 1005.05 1005.06 1005.96 1007.74
1014.84 1011.83 1010.64 1011.18 1008.88 1007.16 1006.64 1006.66 1006.62 1006.21 1006.00 1005.95 1005.72 1005.60 1005.43 1005.31 1005.20 1004.74 1004.34 1004.90 1005.69 1005.88 1005.74 1005.36 1004.81 1004.74 1004.21 1003.71 1004.04 1003.68 1003.69 1003.64 1004.02 1004.62 1004.78 1006.22 1004.50 1004.62 1004.54 1005.04 1005.37 1005.73 1006.01 1007.20 1008.76
1015.38 1011.34 1010.06 1010.14 1009.22 1008.47 1006.60 1006.71 1006.74 1006.97 1006.31 1006.25 1005.98 1005.87 1005.98 1005.93 1005.68 1005.50 1005.08 1005.38 1006.52 1006.83 1007.44 1007.17 1005.98 1005.44 1005.41 1004.41 1004.11 1004.29 1004.58 1003.93 1003.98 1004.06 1004.30 1004.12 1003.80 1004.04 1004.34 1004.83 1005.78 1006.95 1007.65 1008.80 1010.34
1015.09 1011.72 1011.36 1008.99 1008.72 1008.40 1007.94 1007.22 1006.66 1006.77 1007.35 1006.90 1006.41 1006.34 1006.27 1006.13 1005.79 1005.60 1005.75 1005.75 1006.07 1007.26 1007.45 1007.35 1006.54 1006.21 1005.49 1005.60 1005.37 1005.70 1005.94 1005.23 1003.56 1003.45 1003.62 1003.60 1003.71 1004.10 1004.30 1005.14 1006.32 1007.92 1008.96 1010.16 1011.62
1014.84 1012.84 1012.02 1010.70 1010.38 1009.74 1008.84 1008.19 1007.37 1006.62 1007.03 1007.10 1006.83 1006.45 1006.72 1006.70 1006.18 1005.87 1006.45 1006.22 1006.60 1006.66 1007.28 1007.49 1007.11 1006.73 1005.70 1005.97 1006.05 1005.89 1005.88 1005.96 1004.10 1003.07 1002.84 1003.15 1003.03 1003.60 1004.88 1006.16 1007.61 1008.76 1009.94 1011.28 1012.92
1015.08 1014.95 1014.03 1011.22 1010.34 1009.92 1008.65 1008.55 1008.08 1007.81 1007.98 1007.87 1007.29 1007.17 1007.58 1007.52 1007.38 1007.06 1007.61 1007.64 1007.75 1007.92 1007.81 1007.69 1007.43 1006.85 1005.51 1006.57 1007.04 1006.57 1006.12 1005.92 1004.92 1003.33 1002.88 1002.75 1003.68 1004.40 1006.02 1007.00 1008.13 1009.43 1010.86 1012.54 1014.28
Thickness
5719 5724 5728 5733 5737 5741 5745 5749 5752 5755 5756 5757 5758 5761 5763 5766 5771 5779 5788 5800 5806 5804 5803 5813 5812 5816 5820 5820 5827 5832 5807 5823 5840 5836 5838 5838 5823 5837 5837 5819 5818 5815 5815 5805 5803
5718 5723 5727 5732 5736 5740 5743 5747 5750 5753 5756 5758 5759 5761 5763 5766 5777 5789 5803 5805 5803 5802 5802 5805 5804 5813 5809 5818 5824 5816 5814 5840 5856 5857 5845 5832 5830 5818 5815 5807 5799 5796 5800 5801 5801
5715 5721 5726 5730 5733 5738 5742 5746 5750 5753 5756 5758 5760 5762 5763 5765 5777 5802 5806 5802 5800 5800 5810 5815 5818 5813 5809 5822 5822 5821 5817 5849 5840 5850 5854 5830 5833 5828 5817 5798 5802 5790 5790 5794 5796
5713 5718 5722 5727 5732 5737 5741 5746 5751 5754 5757 5759 5760 5762 5763 5772 5769 5805 5802 5799 5798 5801 5810 5810 5808 5801 5806 5803 5825 5810 5825 5831 5831 5838 5839 5824 5828 5812 5822 5818 5819 5807 5797 5793 5790
5709 5715 5720 5726 5731 5737 5742 5746 5750 5755 5758 5760 5761 5761 5766 5772 5788 5802 5798 5796 5799 5803 5806 5807 5803 5808 5802 5816 5814 5810 5814 5824 5828 5827 5831 5826 5810 5811 5807 5812 5813 5802 5794 5790 5790
5706 5712 5719 5725 5731 5737 5742 5747 5752 5756 5758 5760 5760 5760 5767 5765 5810 5804 5801 5799 5804 5806 5807 5812 5810 5818 5812 5810 5807 5820 5814 5816 5819 5820 5819 5806 5806 5806 5804 5806 5798 5790 5786 5787 5785
5703 5710 5716 5723 5730 5737 5742 5748 5753 5756 5758 5759 5760 5764 5770 5781 5809 5805 5804 5803 5809 5808 5800 5811 5814 5804 5813 5801 5820 5812 5795 5804 5807 5812 5802 5808 5788 5784 5803 5798 5787 5782 5781 5781 5779
5698 5705 5713 5720 5728 5735 5741 5748 5753 5757 5757 5757 5758 5768 5771 5806 5807 5803 5804 5800 5805 5807 5805 5810 5810 5805 5805 5814 5801 5792 5797 5775 5797 5801 5801 5794 5776 5792 5800 5788 5780 5779 5776 5774 5775
5693 5702 5709 5717 5725 5732 5740 5746 5751 5755 5757 5757 5760 5768 5772 5798 5789 5802 5803 5792 5796 5798 5801 5800 5800 5792 5795 5783 5779 5785 5774 5779 5790 5800 5793 5783 5779 5802 5798 5786 5778 5776 5774 5771 5771
5689 5698 5706 5714 5723 5730 5740 5744 5748 5750 5755 5763 5770 5759 5784 5780 5794 5800 5804 5800 5787 5786 5782 5780 5783 5775 5781 5780 5766 5778 5777 5798 5789 5788 5787 5779 5780 5802 5792 5784 5778 5777 5776 5774 5769
5684 5693 5703 5710 5720 5727 5738 5752 5749 5748 5762 5768 5775 5776 5786 5796 5800 5790 5798 5787 5787 5778 5761 5777 5764 5764 5781 5789 5799 5807 5799 5791 5802 5810 5782 5779 5779 5790 5792 5782 5777 5777 5776 5774 5771
5678 5687 5698 5709 5719 5728 5730 5751 5745 5746 5743 5778 5778 5780 5787 5789 5768 5781 5795 5770 5768 5758 5773 5767 5757 5788 5796 5794 5785 5784 5780 5784 5801 5796 5778 5778 5774 5792 5794 5783 5781 5779 5779 5776 5773
5671 5681 5691 5706 5716 5729 5742 5739 5747 5750 5738 5771 5781 5776 5777 5777 5767 5771 5781 5776 5766 5760 5770 5761 5779 5789 5777 5772 5766 5773 5772 5778 5779 5778 5775 5771 5768 5781 5796 5792 5786 5786 5786 5783 5776
5665 5674 5682 5697 5710 5729 5734 5735 5741 5743 5728 5755 5760 5773 5780 5775 5758 5789 5786 5775 5767 5758 5769 5769 5785 5770 5765 5763 5768 5760 5782 5777 5772 5761 5745 5776 5742 5780 5786 5781 5779 5780 5781 5779 5776
5656 5665 5675 5675 5698 5721 5722 5729 5734 5730 5707 5753 5762 5791 5783 5764 5775 5768 5788 5772 5754 5758 5763 5761 5766 5758 5757 5764 5774 5765 5771 5762 5759 5752 5753 5763 5745 5772 5799 5774 5773 5776 5779 5779 5778
5651 5658 5664 5688 5695 5711 5717 5721 5721 5703 5704 5741 5762 5756 5758 5762 5763 5772 5764 5772 5770 5759 5764 5762 5774 5768 5765 5772 5771 5770 5752 5750 5747 5743 5722 5749 5747 5768 5785 5778 5776 5778 5778 5775 5773
5646 5656 5657 5672 5696 5702 5706 5707 5694 5697 5745 5737 5741 5757 5755 5749 5750 5748 5742 5739 5737 5723 5731 5750 5752 5762 5764 5749 5756 5750 5736 5714 5711 5721 5724 5762 5745 5762 5771 5770 5769 5767 5766 5765 5763
5642 5656 5669 5676 5685 5689 5692 5688 5677 5723 5731 5734 5740 5747 5742 5751 5745 5745 5739 5734 5747 5744 5745 5740 5730 5753 5758 5749 5743 5738 5739 5716 5684 5726 5747 5746 5726 5750 5763 5764 5764 5762 5760 5757 5753
5637 5664 5674 5682 5678 5681 5680 5674 5693 5712 5723 5717 5726 5724 5733 5746 5744 5742 5737 5739 5750 5747 5726 5735 5733 5767 5758 5757 5755 5745 5726 5750 5725 5732 5721 5745 5762 5757 5755 5749 5749 5749 5749 5743 5740
5627 5650 5670 5674 5670 5671 5671 5677 5702 5711 5709 5708 5702 5724 5726 5730 5723 5738 5736 5746 5743 5754 5750 5741 5715 5748 5747 5749 5750 5742 5755 5713 5714 5676 5685 5730 5745 5739 5736 5737 5739 5738 5735 5735 5732
5623 5650 5665 5668 5666 5663 5666 5685 5697 5705 5701 5695 5702 5708 5717 5722 5725 5732 5733 5746 5738 5743 5744 5737 5723 5735 5732 5724 5729 5728 5721 5723 5729 5724 5688 5692 5727 5749 5740 5739 5735 5736 5737 5732 5726
5626 5641 5661 5662 5653 5672 5675 5690 5678 5696 5695 5694 5697 5704 5704 5709 5703 5716 5720 5725 5724 5728 5726 5735 5720 5708 5728 5749 5755 5751 5738 5729 5705 5698 5712 5701 5703 5749 5739 5739 5733 5734 5737 5729 5715
5622 5640 5659 5652 5652 5671 5681 5677 5680 5683 5687 5688 5688 5696 5700 5691 5683 5699 5708 5714 5712 5710 5705 5718 5707 5688 5700 5728 5732 5725 5734 5738 5733 5723 5701 5648 5686 5734 5734 5727 5726 5723 5724 5714 5701
5611 5633 5646 5647 5656 5652 5669 5667 5666 5677 5682 5687 5687 5692 5685 5681 5691 5684 5694 5703 5700 5698 5683 5695 5697 5690 5672 5702 5718 5694 5706 5727 5722 5704 5701 5706 5715 5722 5720 5715 5712 5707 5704 5693 5680
5606 5623 5626 5642 5644 5649 5655 5660 5662 5660 5667 5677 5676 5678 5677 5669 5678 5680 5688 5693 5696 5677 5687 5687 5677 5692 5700 5702 5706 5690 5679 5690 5715 5718 5701 5713 5710 5714 5718 5712 5703 5695 5687 5676 5663
5592 5605 5616 5622 5623 5626 5624 5639 5649 5661 5661 5658 5662 5674 5674 5665 5676 5670 5671 5679 5674 5684 5679 5679 5666 5681 5682 5693 5692 5682 5691 5687 5699 5716 5718 5716 5715 5730 5711 5707 5691 5681 5673 5661 5647
5581 5582 5585 5606 5615 5615 5630 5631 5636 5646 5649 5654 5660 5660 5656 5661 5669 5676 5671 5670 5667 5661 5662 5664 5664 5666 5663 5679 5665 5644 5676 5683 5690 5714 5716 5703 5704 5704 5691 5687 5681 5672 5663 5648 5633